DW8187 Weather Reports


time (UTC)temp
C
wind
direction
speed
KPH
gust
KPH
rain 1hr
cm
rain 24hr
cm
rain mn
cm
humidity
%
barometer
mb
20260504070303 29 2 6.4 9.7 0.05 0.20 0.05 60 1018.7
20260504070203 29 4 6.4 9.7 0.05 0.20 0.05 60 1018.6
20260504070104 29 5 6.4 9.7 0.05 0.20 0.05 60 1018.8
20260504060203 29 1 8.0 11.3 0.00 0.15 0.00 60 1019.4
20260504060104 29 359 8.0 11.3 0.00 0.15 0.00 60 1019.5
20260504050703 29 345 9.7 11.3 0.00 0.15 0.00 60 1019.7
20260504050603 29 342 9.7 12.9 0.00 0.15 0.00 60 1019.9
20260504050503 29 341 9.7 12.9 0.00 0.15 0.00 60 1019.8
20260504050403 29 342 8.0 12.9 0.00 0.15 0.00 60 1019.8
20260504050303 29 339 8.0 12.9 0.00 0.15 0.00 60 1019.7
20260504050204 29 341 9.7 12.9 0.00 0.15 0.00 60 1019.8
20260504050104 29 343 8.0 12.9 0.00 0.15 0.00 60 1019.8
20260504050004 29 348 9.7 12.9 0.00 0.15 0.00 60 1019.7
20260504045924 29 349 9.7 12.9 0.00 0.15 0.00 60 1019.9
20260504045803 29 352 9.7 12.9 0.00 0.15 0.00 60 1019.8
20260504045724 29 350 8.0 12.9 0.00 0.15 0.00 60 1019.8
20260504045603 29 350 8.0 12.9 0.00 0.15 0.00 60 1019.8
20260504045503 29 350 8.0 12.9 0.00 0.15 0.00 60 1019.8
20260504045403 29 353 8.0 12.9 0.00 0.15 0.00 60 1019.8
20260504045304 29 358 8.0 12.9 0.00 0.15 0.00 60 1019.7
20260504045203 29 1 8.0 12.9 0.00 0.15 0.00 60 1019.9
20260504045103 29 4 8.0 12.9 0.00 0.15 0.00 60 1020.0
20260504045004 29 6 8.0 12.9 0.00 0.15 0.00 60 1019.9
20260504044903 29 359 8.0 12.9 0.00 0.15 0.00 60 1019.9
20260504044803 29 354 6.4 9.7 0.00 0.15 0.00 60 1019.9
20260504044703 29 353 8.0 11.3 0.00 0.15 0.00 60 1019.8
20260504044604 29 353 8.0 11.3 0.00 0.15 0.00 60 1020.0
20260504044504 29 353 8.0 12.9 0.00 0.15 0.00 60 1019.8
20260504044424 29 352 8.0 12.9 0.00 0.15 0.00 60 1020.0
20260504044303 29 346 8.0 12.9 0.00 0.15 0.00 60 1020.0
20260504044203 29 345 9.7 12.9 0.00 0.15 0.00 60 1019.9
20260504044104 29 342 9.7 12.9 0.00 0.15 0.00 60 1020.0
20260504044003 29 340 9.7 12.9 0.00 0.15 0.00 60 1020.1
20260504043903 29 343 9.7 12.9 0.00 0.15 0.00 60 1020.0
20260504043803 29 348 9.7 14.5 0.00 0.15 0.00 60 1020.0
20260504043724 29 350 9.7 14.5 0.00 0.15 0.00 60 1019.9
20260504043603 29 350 9.7 14.5 0.00 0.15 0.00 60 1019.9
20260504043503 29 351 9.7 14.5 0.00 0.15 0.00 60 1019.9
20260504043403 29 350 9.7 14.5 0.00 0.15 0.00 60 1020.0
20260504043303 29 350 9.7 14.5 0.00 0.15 0.00 60 1020.0
20260504043203 29 351 9.7 14.5 0.00 0.15 0.00 60 1020.1
20260504043104 29 351 9.7 14.5 0.00 0.15 0.00 60 1020.0
20260504043003 29 349 9.7 14.5 0.00 0.15 0.00 60 1020.1
20260504042903 29 345 9.7 14.5 0.00 0.15 0.00 60 1020.1
20260504042803 29 340 8.0 11.3 0.00 0.15 0.00 60 1020.0
20260504042724 29 343 9.7 12.9 0.00 0.15 0.00 60 1019.8
20260504042603 29 349 8.0 12.9 0.00 0.15 0.00 60 1019.9
20260504042503 29 348 8.0 12.9 0.00 0.15 0.00 60 1019.9
20260504042403 29 349 8.0 12.9 0.00 0.15 0.00 60 1020.0
20260504042304 29 352 9.7 12.9 0.00 0.15 0.00 60 1020.1
20260504042203 29 350 8.0 12.9 0.00 0.15 0.00 60 1020.1
20260504042104 29 349 8.0 12.9 0.00 0.15 0.00 60 1019.9
20260504042024 29 353 8.0 12.9 0.00 0.15 0.00 60 1020.2
20260504041903 29 356 8.0 12.9 0.00 0.15 0.00 60 1020.0
20260504041824 29 358 8.0 12.9 0.00 0.15 0.00 60 1019.9
20260504041703 29 353 6.4 11.3 0.00 0.15 0.00 60 1020.1
20260504041625 29 352 6.4 11.3 0.00 0.15 0.00 60 1020.1
20260504041503 29 351 6.4 11.3 0.00 0.15 0.00 60 1020.0
20260504041424 29 352 6.4 11.3 0.00 0.15 0.00 60 1020.0
20260504041304 29 348 6.4 9.7 0.00 0.15 0.00 60 1020.0
20260504041204 29 352 6.4 11.3 0.00 0.15 0.00 60 1019.9
20260504041103 29 353 6.4 11.3 0.00 0.15 0.00 60 1019.9
20260504041003 29 351 6.4 11.3 0.00 0.15 0.00 60 1020.0
20260504040903 29 348 6.4 11.3 0.00 0.15 0.00 60 1020.1
20260504040803 29 349 8.0 11.3 0.00 0.15 0.00 60 1019.9
20260504040724 29 351 8.0 14.5 0.00 0.15 0.00 60 1020.1
20260504040603 29 351 9.7 14.5 0.00 0.15 0.00 60 1020.0
20260504040503 29 349 9.7 14.5 0.00 0.15 0.00 60 1019.9
20260504040424 29 349 9.7 14.5 0.00 0.15 0.00 60 1020.0
20260504040324 29 347 9.7 14.5 0.00 0.15 0.00 60 1020.0
20260504040224 29 347 9.7 14.5 0.00 0.15 0.00 60 1020.0
20260504040103 29 346 9.7 14.5 0.00 0.15 0.00 60 1020.0
20260504040024 29 343 9.7 14.5 0.00 0.15 0.00 60 1020.0
20260504035903 29 344 9.7 14.5 0.00 0.15 0.00 60 1019.9
20260504035824 29 346 9.7 14.5 0.00 0.15 0.00 60 1019.9
20260504035703 29 343 9.7 16.1 0.00 0.15 0.00 60 1019.8
20260504035603 29 340 9.7 16.1 0.00 0.15 0.00 60 1020.0
20260504035503 29 340 9.7 16.1 0.00 0.15 0.00 60 1019.7
20260504035403 29 336 9.7 16.1 0.00 0.15 0.00 60 1019.9
20260504035326 29 337 9.7 16.1 0.00 0.15 0.00 60 1019.8
20260504035203 29 337 9.7 16.1 0.00 0.15 0.00 60 1019.9
20260504035103 29 338 9.7 16.1 0.00 0.15 0.00 60 1019.9
20260504035024 29 337 9.7 16.1 0.00 0.15 0.00 60 1019.9
20260504034924 29 336 9.7 16.1 0.00 0.15 0.00 60 1020.0
20260504034824 29 336 11.3 16.1 0.00 0.15 0.00 60 1019.9
20260504034703 29 337 9.7 14.5 0.00 0.15 0.00 60 1019.9
20260504034603 29 339 9.7 14.5 0.00 0.15 0.00 60 1019.8
20260504034524 29 340 9.7 14.5 0.00 0.15 0.00 60 1020.0
20260504034403 29 341 9.7 14.5 0.00 0.15 0.00 60 1019.9
20260504034303 29 345 8.0 14.5 0.00 0.15 0.00 60 1019.9
20260504034203 29 348 8.0 14.5 0.00 0.15 0.00 60 1019.8
20260504034103 29 347 8.0 14.5 0.00 0.15 0.00 60 1019.9
20260504034004 29 350 8.0 14.5 0.00 0.15 0.00 60 1019.8
20260504033903 29 353 8.0 14.5 0.00 0.15 0.00 60 1019.8
20260504033803 29 351 9.7 14.5 0.00 0.15 0.00 60 1019.9
20260504033705 29 345 9.7 14.5 0.00 0.15 0.00 60 1019.7
20260504033603 29 342 9.7 14.5 0.00 0.15 0.00 60 1019.8
20260504033503 29 341 9.7 16.1 0.00 0.15 0.00 60 1019.7
20260504033403 29 344 9.7 16.1 0.00 0.15 0.00 60 1019.8
20260504033303 29 340 11.3 16.1 0.00 0.15 0.00 60 1019.8
20260504033203 29 337 11.3 16.1 0.00 0.15 0.00 60 1019.8
20260504033104 29 336 11.3 16.1 0.00 0.15 0.00 60 1019.9
20260504033003 29 335 11.3 16.1 0.00 0.15 0.00 60 1019.8
20260504032903 29 334 11.3 16.1 0.00 0.15 0.00 60 1019.7
20260504032803 29 336 11.3 16.1 0.00 0.15 0.00 60 1019.8
20260504032703 29 341 9.7 16.1 0.00 0.15 0.00 60 1019.9
20260504032603 29 342 9.7 16.1 0.00 0.15 0.00 60 1019.9
20260504032524 29 342 9.7 16.1 0.00 0.15 0.00 60 1019.9
20260504032403 29 343 9.7 12.9 0.00 0.15 0.00 60 1019.8
20260504032304 29 347 9.7 12.9 0.00 0.15 0.00 60 1019.9
20260504032203 29 350 9.7 12.9 0.00 0.15 0.00 60 1019.8
20260504032105 29 352 8.0 12.9 0.00 0.15 0.00 60 1019.7
20260504032003 29 356 8.0 12.9 0.00 0.15 0.00 60 1019.9
20260504031903 29 355 8.0 12.9 0.00 0.15 0.00 60 1019.7
20260504031824 29 355 6.4 12.9 0.00 0.15 0.00 60 1019.8
20260504031703 29 360 6.4 12.9 0.00 0.15 0.00 60 1019.8
20260504031624 29 8 6.4 12.9 0.00 0.15 0.00 60 1019.8
20260504031503 29 17 6.4 14.5 0.00 0.15 0.00 60 1019.6
20260504031403 29 22 6.4 14.5 0.00 0.15 0.00 60 1019.9
20260504031303 29 20 6.4 14.5 0.00 0.15 0.00 60 1019.8
20260504031203 29 19 6.4 14.5 0.00 0.15 0.00 60 1019.8
20260504031103 29 17 6.4 14.5 0.00 0.15 0.00 60 1019.7
20260504031003 29 19 6.4 14.5 0.00 0.15 0.00 60 1019.5
20260504030924 29 19 6.4 14.5 0.00 0.15 0.00 60 1019.6
20260504030825 29 20 6.4 14.5 0.00 0.15 0.00 60 1019.7
20260504030703 29 21 6.4 14.5 0.00 0.15 0.00 60 1019.7
20260504030604 29 21 6.4 14.5 0.00 0.18 0.00 60 1019.7
20260504030504 29 17 4.8 9.7 0.00 0.18 0.00 60 1019.6
20260504030424 29 19 4.8 9.7 0.00 0.18 0.00 60 1019.7
20260504030303 29 23 4.8 9.7 0.00 0.18 0.00 60 1019.6
20260504030224 29 28 4.8 9.7 0.00 0.18 0.00 60 1019.6
20260504030004 29 37 4.8 11.3 0.00 0.18 0.00 60 1019.5
20260504025903 29 38 4.8 11.3 0.00 0.18 0.00 60 1019.6
20260504025803 29 42 4.8 11.3 0.00 0.18 0.00 60 1019.6
20260504025703 29 40 6.4 11.3 0.00 0.18 0.00 60 1019.5
20260504025603 29 39 6.4 11.3 0.00 0.18 0.00 60 1019.5
20260504025524 29 38 6.4 11.3 0.00 0.18 0.00 60 1019.6
20260504025403 29 35 6.4 11.3 0.00 0.20 0.00 60 1019.7
20260504025304 29 35 4.8 11.3 0.00 0.20 0.00 60 1019.6
20260504025224 29 35 4.8 11.3 0.00 0.23 0.00 60 1019.6
20260504025103 29 32 4.8 11.3 0.00 0.23 0.00 60 1019.7
20260504025003 29 26 4.8 11.3 0.00 0.25 0.00 60 1019.6
20260504024905 29 21 4.8 11.3 0.00 0.28 0.00 60 1019.6
20260504024803 29 12 6.4 11.3 0.00 0.30 0.00 60 1019.6
20260504024724 29 5 4.8 11.3 0.00 0.30 0.00 60 1019.6
20260504024603 29 355 4.8 11.3 0.00 0.36 0.00 60 1019.7
20260504024503 29 354 6.4 11.3 0.00 0.36 0.00 60 1019.5
20260504024424 29 355 6.4 11.3 0.00 0.38 0.00 60 1019.6
20260504024303 29 360 6.4 11.3 0.00 0.38 0.00 60 1019.5
20260504024203 29 1 6.4 11.3 0.00 0.38 0.00 60 1019.5
20260504024103 29 1 6.4 11.3 0.00 0.38 0.00 60 1019.5
20260504024003 29 7 6.4 11.3 0.00 0.41 0.00 60 1019.6
20260504023903 29 10 6.4 9.7 0.00 0.41 0.00 60 1019.4
20260504023824 29 14 6.4 9.7 0.00 0.41 0.00 60 1019.5
20260504023703 29 19 6.4 9.7 0.00 0.41 0.00 60 1019.7
20260504023604 29 22 6.4 9.7 0.00 0.43 0.00 60 1019.5
20260504023503 29 25 4.8 9.7 0.00 0.43 0.00 60 1019.6
20260504023403 29 31 6.4 9.7 0.00 0.46 0.00 60 1019.7
20260504023324 29 29 6.4 9.7 0.00 0.46 0.00 60 1019.7
20260504023203 29 27 6.4 9.7 0.00 0.46 0.00 60 1019.5
20260504023125 29 27 6.4 9.7 0.00 0.46 0.00 60 1019.4
20260504023003 29 25 6.4 9.7 0.00 0.48 0.00 60 1019.5
20260504022903 29 26 6.4 9.7 0.00 0.48 0.00 60 1019.4
20260504022803 29 27 6.4 9.7 0.00 0.48 0.00 60 1019.2
20260504022703 29 26 6.4 9.7 0.00 0.48 0.00 60 1019.5
20260504022624 29 25 6.4 9.7 0.00 0.51 0.00 60 1019.6
20260504022503 29 22 6.4 9.7 0.00 0.51 0.00 60 1019.6
20260504022403 29 15 4.8 9.7 0.00 0.53 0.00 60 1019.4
20260504022324 29 13 4.8 9.7 0.00 0.53 0.00 60 1019.5
20260504022203 29 7 6.4 9.7 0.00 0.53 0.00 60 1019.4
20260504022103 29 2 6.4 9.7 0.00 0.53 0.00 60 1019.4
20260504022003 29 359 6.4 9.7 0.00 0.56 0.00 60 1019.6
20260504021903 29 355 6.4 12.9 0.00 0.56 0.00 60 1019.5
20260504021803 29 353 6.4 12.9 0.00 0.58 0.00 60 1019.4
20260504021703 29 352 6.4 12.9 0.00 0.58 0.00 60 1019.5
20260504021603 29 353 8.0 12.9 0.00 0.58 0.00 60 1019.5
20260504021504 29 356 8.0 12.9 0.00 0.58 0.00 60 1019.2
20260504021403 29 355 8.0 12.9 0.00 0.58 0.00 60 1019.5
20260504021304 29 357 8.0 12.9 0.00 0.61 0.00 60 1019.4
20260504021224 29 358 8.0 12.9 0.00 0.61 0.00 60 1019.5
20260504021124 29 359 8.0 12.9 0.00 0.61 0.00 60 1019.5
20260504021025 29 1 8.0 12.9 0.00 0.61 0.00 60 1019.4
20260504020903 29 8 6.4 11.3 0.00 0.61 0.00 60 1019.4
20260504020803 29 11 6.4 11.3 0.00 0.64 0.00 60 1019.4
20260504020724 29 12 6.4 11.3 0.00 0.66 0.00 60 1019.2
20260504020603 29 12 6.4 9.7 0.00 0.66 0.00 60 1019.2
20260504020503 29 10 6.4 9.7 0.00 0.69 0.00 60 1019.4
20260504020403 29 12 6.4 9.7 0.00 0.71 0.00 60 1019.4
20260504020303 29 13 6.4 9.7 0.00 0.71 0.00 60 1019.5
20260504020203 29 15 4.8 9.7 0.00 0.71 0.00 60 1019.2
20260504020103 29 13 4.8 9.7 0.00 0.74 0.00 60 1019.2
20260504020004 29 12 6.4 9.7 0.00 0.74 0.00 60 1019.4
20260504015903 29 10 6.4 9.7 0.00 0.74 0.00 60 1019.2
20260504015803 29 6 6.4 9.7 0.00 0.76 0.00 60 1019.5
20260504015703 29 3 6.4 9.7 0.00 0.76 0.00 60 1019.2
20260504015603 29 360 6.4 9.7 0.00 0.76 0.00 60 1019.2
20260504015524 29 360 6.4 9.7 0.00 0.76 0.00 60 1019.2
20260504015403 29 357 6.4 9.7 0.00 0.76 0.00 60 1019.1
20260504015304 29 355 6.4 9.7 0.00 0.76 0.00 60 1019.1
20260504015226 29 355 6.4 9.7 0.00 0.76 0.00 60 1019.1
20260504015103 29 354 6.4 9.7 0.00 0.76 0.00 60 1019.4
20260504015003 29 351 6.4 9.7 0.00 0.76 0.00 60 1019.2
20260504014903 29 348 4.8 9.7 0.00 0.76 0.00 60 1019.5
20260504014803 29 346 4.8 9.7 0.00 0.76 0.00 60 1019.2
20260504014724 29 346 4.8 9.7 0.00 0.76 0.00 60 1019.2
20260504014603 29 345 3.2 6.4 0.00 0.76 0.00 60 1019.2
20260504014524 29 345 3.2 6.4 0.00 0.79 0.00 60 1019.1
20260504014403 29 340 3.2 6.4 0.00 0.79 0.00 60 1019.1
20260504014303 29 343 3.2 6.4 0.00 0.79 0.00 60 1019.0
20260504014203 29 341 1.6 6.4 0.00 0.79 0.00 60 1019.0
20260504014103 29 348 1.6 6.4 0.00 0.79 0.00 60 1019.0
20260504014024 29 354 1.6 6.4 0.00 0.79 0.00 60 1019.0
20260504013924 29 4 1.6 3.2 0.00 0.79 0.00 60 1018.9
20260504013803 29 15 1.6 4.8 0.00 0.79 0.00 60 1018.9
20260504013703 29 21 1.6 4.8 0.00 0.79 0.00 60 1018.9
20260504013603 29 30 1.6 4.8 0.00 0.79 0.00 60 1018.9
20260504013503 29 30 1.6 4.8 0.00 0.79 0.00 60 1018.8
20260504013403 29 36 1.6 4.8 0.00 0.79 0.00 60 1019.0
20260504013305 29 38 1.6 4.8 0.00 0.79 0.00 60 1018.8
20260504013203 29 39 1.6 4.8 0.00 0.79 0.00 60 1018.8
20260504013103 29 39 1.6 4.8 0.00 0.79 0.00 60 1018.8
20260504013003 29 33 1.6 4.8 0.00 0.79 0.00 60 1018.8
20260504012903 29 14 1.6 4.8 0.00 0.79 0.00 60 1018.7
20260504012803 29 6 1.6 4.8 0.00 0.79 0.00 60 1018.9
20260504012724 29 358 1.6 3.2 0.00 0.79 0.00 60 1018.8
20260504012624 29 344 1.6 3.2 0.00 0.79 0.00 60 1018.9
20260504012503 29 342 1.6 3.2 0.00 0.79 0.00 60 1019.0
20260504012403 29 343 1.6 3.2 0.00 0.79 0.00 60 1018.8
20260504012304 29 351 1.6 6.4 0.00 0.79 0.00 60 1018.8
20260504012203 29 353 3.2 6.4 0.00 0.79 0.00 60 1018.8
20260504012103 29 353 3.2 6.4 0.00 0.79 0.00 60 1018.8
20260504012003 29 353 3.2 6.4 0.00 0.79 0.00 60 1018.9
20260504011903 29 358 3.2 6.4 0.00 0.79 0.00 60 1018.6
20260504011803 29 360 4.8 9.7 0.00 0.79 0.00 60 1018.8
20260504011703 29 360 4.8 9.7 0.00 0.79 0.00 60 1018.7
20260504011603 29 2 4.8 9.7 0.00 0.79 0.00 60 1018.8
20260504011503 29 4 4.8 9.7 0.00 0.79 0.00 60 1018.7
20260504011424 29 5 4.8 9.7 0.00 0.79 0.00 60 1018.8
20260504011303 29 3 4.8 9.7 0.00 0.79 0.00 60 1018.7
20260504011205 29 4 4.8 9.7 0.00 0.79 0.00 60 1018.6
20260504011103 29 5 4.8 9.7 0.00 0.79 0.00 60 1018.7
20260504011024 29 8 4.8 9.7 0.00 0.79 0.00 60 1018.8
20260504010903 29 9 4.8 9.7 0.00 0.79 0.00 60 1018.7
20260504010803 29 11 3.2 6.4 0.00 0.79 0.00 60 1018.8
20260504010703 29 11 3.2 6.4 0.00 0.79 0.00 60 1018.7
20260504010603 29 10 3.2 6.4 0.00 0.79 0.00 60 1018.7
20260504010503 29 5 3.2 6.4 0.00 0.79 0.00 60 1018.7
20260504010424 29 4 3.2 6.4 0.00 0.79 0.00 60 1018.7
20260504010303 29 1 3.2 4.8 0.00 0.79 0.00 60 1018.6
20260504010204 29 353 3.2 4.8 0.00 0.79 0.00 60 1018.6
20260504010024 29 342 3.2 4.8 0.00 0.81 0.00 60 1018.7
20260504005903 29 339 3.2 4.8 0.00 0.81 0.00 60 1018.6
20260504005803 29 338 3.2 4.8 0.00 0.81 0.00 60 1018.6
20260504005724 29 336 3.2 4.8 0.00 0.81 0.00 60 1018.8
20260504005604 29 338 3.2 4.8 0.00 0.81 0.00 60 1018.7
20260504005504 29 340 3.2 4.8 0.00 0.81 0.00 60 1018.5
20260504005403 29 340 3.2 4.8 0.00 0.84 0.00 60 1018.4
20260504005305 29 343 3.2 4.8 0.00 0.84 0.00 60 1018.6
20260504005224 29 347 3.2 4.8 0.00 0.86 0.00 60 1018.5
20260504005104 29 356 3.2 4.8 0.00 0.86 0.00 60 1018.5
20260504005004 29 359 3.2 4.8 0.00 0.89 0.00 60 1018.6
20260504004903 29 1 3.2 4.8 0.00 0.91 0.00 60 1018.4
20260504004803 29 2 3.2 4.8 0.00 0.94 0.00 60 1018.5
20260504004703 29 5 3.2 4.8 0.00 0.97 0.00 60 1018.4
20260504004604 29 11 1.6 4.8 0.00 0.99 0.00 60 1018.4
20260504004504 29 18 1.6 3.2 0.00 1.02 0.00 60 1018.3
20260504004424 29 20 1.6 3.2 0.00 1.02 0.00 60 1018.3
20260504004324 29 20 1.6 3.2 0.00 1.04 0.00 60 1018.5
20260504004203 29 21 1.6 3.2 0.00 1.04 0.00 60 1018.5
20260504004103 29 20 1.6 3.2 0.00 1.04 0.00 60 1018.3
20260504004003 29 21 0.0 3.2 0.00 1.07 0.00 60 1018.4
20260504003904 29 22 0.0 3.2 0.00 1.07 0.00 60 1018.5
20260504003824 29 24 0.0 3.2 0.00 1.07 0.00 60 1018.4
20260504003704 29 24 0.0 3.2 0.00 1.07 0.00 60 1018.4
20260504003603 29 26 1.6 3.2 0.00 1.09 0.00 60 1018.4
20260504003505 29 24 1.6 3.2 0.00 1.09 0.00 60 1018.4
20260504003403 29 25 1.6 3.2 0.00 1.09 0.00 60 1018.3
20260504003303 29 27 0.0 3.2 0.00 1.09 0.00 60 1018.3
20260504003203 29 27 0.0 3.2 0.00 1.09 0.00 60 1017.9
20260504003104 29 26 0.0 3.2 0.00 1.12 0.00 60 1018.3
20260504003004 29 26 0.0 3.2 0.00 1.12 0.00 60 1018.3
20260504002903 29 26 0.0 1.6 0.00 1.12 0.00 60 1018.3
20260504002803 29 23 0.0 1.6 0.00 1.12 0.00 60 1018.1
20260504002704 29 23 0.0 1.6 0.00 1.12 0.00 60 1017.9
20260504002603 29 23 0.0 1.6 0.00 1.12 0.00 60 1018.0
20260504002503 29 10 0.0 1.6 0.00 1.12 0.00 60 1018.0
20260504002404 29 0 0.0 0.0 0.00 1.12 0.00 60 1017.9
20260504002324 29 0 0.0 0.0 0.00 1.12 0.00 60 1018.0
20260504002203 29 0 0.0 0.0 0.00 1.12 0.00 60 1018.1
20260504002103 29 0 0.0 0.0 0.00 1.14 0.00 60 1018.0
20260504002003 29 0 0.0 0.0 0.00 1.14 0.00 60 1018.0
20260504001903 29 0 0.0 0.0 0.00 1.14 0.00 60 1018.1
20260504001803 29 0 0.0 0.0 0.00 1.14 0.00 60 1018.0
20260504001703 29 0 0.0 0.0 0.00 1.14 0.00 60 1018.0
20260504001624 29 0 0.0 0.0 0.00 1.14 0.00 60 1018.0
20260504001525 29 0 0.0 0.0 0.00 1.17 0.00 60 1018.0
20260504001404 29 0 0.0 0.0 0.00 1.17 0.00 60 1017.9
20260504001324 29 0 0.0 0.0 0.00 1.17 0.00 60 1017.8
20260504001205 29 0 0.0 0.0 0.00 1.17 0.00 60 1017.9
20260504001103 29 0 0.0 0.0 0.00 1.19 0.00 60 1017.9
20260504001003 29 0 0.0 0.0 0.00 1.19 0.00 60 1017.8
20260504000903 29 0 0.0 0.0 0.00 1.22 0.00 60 1017.8
20260504000803 29 0 0.0 0.0 0.00 1.24 0.00 60 1017.7
20260504000724 29 0 0.0 0.0 0.00 1.24 0.00 60 1017.6
20260504000604 29 0 0.0 0.0 0.00 1.27 0.00 60 1017.7
20260504000503 29 0 0.0 0.0 0.00 1.30 0.00 60 1017.7
20260504000403 29 0 0.0 0.0 0.00 1.32 0.00 60 1017.6
20260504000303 29 0 0.0 0.0 0.00 1.32 0.00 60 1017.6
20260504000204 29 0 0.0 0.0 0.00 1.35 0.00 60 1017.5
20260504000103 29 0 0.0 0.0 0.00 1.35 0.00 60 1017.6
20260504000004 29 0 0.0 0.0 0.00 1.37 0.00 60 1017.8
20260503235924 29 0 0.0 0.0 0.00 1.37 0.00 60 1017.9
20260503235804 29 0 0.0 0.0 0.00 1.37 0.00 60 1017.7
20260503235704 29 0 0.0 0.0 0.00 1.37 0.00 60 1017.7
20260503235603 29 0 0.0 0.0 0.00 1.37 0.00 60 1017.7
20260503235503 29 0 0.0 0.0 0.00 1.37 0.00 60 1017.8
20260503235426 29 0 0.0 0.0 0.00 1.37 0.00 60 1017.7
20260503235324 29 0 0.0 0.0 0.00 1.37 0.00 60 1017.7
20260503235203 29 0 0.0 0.0 0.00 1.37 0.00 60 1017.7
20260503235124 29 0 0.0 0.0 0.00 1.37 0.00 60 1017.7
20260503235003 29 0 0.0 0.0 0.00 1.37 0.00 60 1017.7
20260503234903 29 0 0.0 0.0 0.00 1.37 0.00 60 1017.9
20260503234803 29 0 0.0 0.0 0.00 1.37 0.00 60 1017.8
20260503234703 29 308 0.0 1.6 0.00 1.37 0.00 60 1017.6
20260503234603 29 308 0.0 1.6 0.00 1.37 0.00 60 1017.8
20260503234503 29 308 0.0 1.6 0.00 1.40 0.00 60 1017.8
20260503234404 29 308 0.0 1.6 0.00 1.40 0.00 60 1017.6
20260503234303 29 308 0.0 1.6 0.00 1.40 0.00 60 1017.7
20260503234225 29 308 0.0 1.6 0.00 1.40 0.00 60 1017.7
20260503234103 29 308 0.0 1.6 0.00 1.40 0.00 60 1017.8
20260503234003 29 308 0.0 1.6 0.00 1.40 0.00 60 1017.5
20260503233925 29 308 0.0 1.6 0.00 1.42 0.00 60 1017.6
20260503233804 29 308 0.0 1.6 0.00 1.42 0.00 60 1017.7
20260503233703 29 308 0.0 1.6 0.00 1.45 0.00 60 1017.6
20260503233603 29 0 0.0 0.0 0.00 1.45 0.00 60 1017.7
20260503233503 29 0 0.0 0.0 0.00 1.45 0.00 60 1017.6
20260503233403 29 0 0.0 0.0 0.00 1.45 0.00 60 1017.6
20260503233303 29 0 0.0 0.0 0.00 1.45 0.00 60 1018.0
20260503233203 29 0 0.0 0.0 0.00 1.47 0.00 60 1017.7
20260503233103 29 0 0.0 0.0 0.00 1.47 0.00 60 1017.6
20260503233003 29 0 0.0 0.0 0.00 1.47 0.00 60 1017.6
20260503232903 29 0 0.0 0.0 0.00 1.47 0.00 60 1017.7
20260503232803 29 0 0.0 0.0 0.00 1.50 0.00 60 1017.5
20260503232703 29 0 0.0 0.0 0.00 1.50 0.00 60 1017.7
20260503232604 29 0 0.0 0.0 0.00 1.50 0.00 60 1017.5
20260503232503 29 0 0.0 0.0 0.00 1.52 0.00 60 1017.6
20260503232403 29 0 0.0 0.0 0.00 1.52 0.00 60 1017.4
20260503232324 29 0 0.0 0.0 0.00 1.52 0.00 60 1017.6
20260503232224 29 0 0.0 0.0 0.00 1.52 0.00 60 1017.5
20260503232126 29 0 0.0 0.0 0.00 1.55 0.00 60 1017.4
20260503232003 29 0 0.0 0.0 0.00 1.55 0.00 60 1017.5
20260503231903 29 0 0.0 0.0 0.00 1.55 0.00 60 1017.3
20260503231824 29 0 0.0 0.0 0.00 1.55 0.00 60 1017.5
20260503231724 29 0 0.0 0.0 0.00 1.57 0.00 60 1017.4
20260503231603 29 0 0.0 0.0 0.00 1.57 0.00 60 1017.3
20260503231503 29 0 0.0 0.0 0.00 1.57 0.00 60 1017.5
20260503231404 29 0 0.0 0.0 0.00 1.57 0.00 60 1017.4
20260503231303 29 0 0.0 0.0 0.00 1.60 0.00 60 1017.3
20260503231203 29 0 0.0 0.0 0.00 1.60 0.00 60 1017.3
20260503231103 29 0 0.0 0.0 0.00 1.60 0.00 60 1017.4
20260503231004 29 0 0.0 0.0 0.00 1.60 0.00 60 1017.4
20260503230903 29 0 0.0 0.0 0.00 1.60 0.00 60 1017.3
20260503230803 29 0 0.0 0.0 0.00 1.63 0.00 60 1017.4
20260503230724 29 0 0.0 0.0 0.00 1.63 0.00 60 1017.3
20260503230603 29 0 0.0 0.0 0.00 1.63 0.00 60 1017.3
20260503230505 29 0 0.0 0.0 0.00 1.65 0.00 60 1017.2
20260503230403 29 0 0.0 0.0 0.00 1.68 0.00 60 1017.4
20260503230303 29 0 0.0 0.0 0.00 1.68 0.00 60 1017.3
20260503230203 29 0 0.0 0.0 0.00 1.73 0.00 60 1017.3
20260503230103 29 0 0.0 0.0 0.00 1.78 0.00 60 1017.3
20260503230003 29 0 0.0 0.0 0.00 1.78 0.00 60 1017.5
20260503225904 29 0 0.0 0.0 0.00 1.78 0.00 60 1017.4
20260503225803 29 0 0.0 0.0 0.00 1.78 0.00 60 1017.4
20260503225704 29 0 0.0 0.0 0.00 1.78 0.00 60 1017.3
20260503225603 29 0 0.0 0.0 0.00 1.78 0.00 60 1017.2
20260503225503 29 0 0.0 0.0 0.00 1.78 0.00 60 1017.2
20260503225404 29 0 0.0 0.0 0.00 1.78 0.00 60 1017.1
20260503225304 29 0 0.0 0.0 0.00 1.78 0.00 60 1017.3
20260503225203 29 0 0.0 0.0 0.00 1.78 0.00 60 1017.2
20260503225103 29 0 0.0 0.0 0.00 1.78 0.00 60 1017.4
20260503225003 29 0 0.0 0.0 0.00 1.78 0.00 60 1017.2
20260503224924 29 0 0.0 0.0 0.00 1.78 0.00 60 1017.1
20260503224803 29 0 0.0 0.0 0.00 1.78 0.00 60 1017.2
20260503224705 29 0 0.0 0.0 0.00 1.78 0.00 60 1017.1
20260503224603 29 0 0.0 0.0 0.00 1.78 0.00 60 1017.3
20260503224503 29 0 0.0 0.0 0.00 1.78 0.00 60 1017.2
20260503224425 29 0 0.0 0.0 0.00 1.78 0.00 60 1017.2
20260503224303 29 0 0.0 0.0 0.00 1.78 0.00 60 1017.2
20260503224203 29 0 0.0 0.0 0.00 1.78 0.00 60 1017.2
20260503224124 29 0 0.0 0.0 0.00 1.78 0.00 60 1017.1
20260503224024 29 0 0.0 0.0 0.00 1.78 0.00 60 1017.3
20260503223903 29 0 0.0 0.0 0.00 1.78 0.00 60 1017.1
20260503223803 29 0 0.0 0.0 0.00 1.78 0.00 60 1017.1
20260503223703 29 0 0.0 0.0 0.00 1.78 0.00 60 1017.1
20260503223603 29 0 0.0 0.0 0.00 1.78 0.00 60 1017.0
20260503223503 29 0 0.0 0.0 0.00 1.78 0.00 60 1017.0
20260503223403 29 0 0.0 0.0 0.00 1.78 0.00 60 1017.1
20260503223303 29 0 0.0 0.0 0.00 1.78 0.00 60 1017.1
20260503223203 29 0 0.0 0.0 0.00 1.78 0.00 60 1017.1
20260503223124 29 0 0.0 0.0 0.00 1.78 0.00 60 1017.1
20260503223003 29 0 0.0 0.0 0.00 1.78 0.00 60 1017.0
20260503222905 29 0 0.0 0.0 0.00 1.78 0.00 60 1017.0
20260503222803 29 0 0.0 0.0 0.00 1.78 0.00 60 1017.0
20260503222724 29 0 0.0 0.0 0.00 1.78 0.00 60 1017.0
20260503222603 29 0 0.0 0.0 0.00 1.78 0.00 60 1017.1
20260503222503 29 0 0.0 0.0 0.00 1.78 0.00 60 1017.1
20260503222403 29 0 0.0 0.0 0.00 1.78 0.00 60 1017.1
20260503222304 29 0 0.0 0.0 0.00 1.78 0.00 60 1016.9
20260503222204 29 0 0.0 0.0 0.00 1.78 0.00 60 1016.9
20260503222103 29 0 0.0 0.0 0.00 1.78 0.00 60 1017.1
20260503222003 29 0 0.0 0.0 0.00 1.78 0.00 60 1017.0
20260503221903 29 0 0.0 0.0 0.00 1.78 0.00 60 1017.1
20260503221824 29 0 0.0 0.0 0.00 1.78 0.00 60 1017.0
20260503221703 29 0 0.0 0.0 0.00 1.78 0.00 60 1017.1
20260503221603 29 0 0.0 0.0 0.00 1.78 0.00 60 1016.9
20260503221503 29 0 0.0 0.0 0.00 1.78 0.00 60 1017.0
20260503221425 29 0 0.0 0.0 0.00 1.78 0.00 60 1016.9
20260503221305 29 0 0.0 0.0 0.00 1.78 0.00 60 1016.7
20260503221203 29 0 0.0 0.0 0.00 1.78 0.00 60 1016.9
20260503221103 29 0 0.0 0.0 0.00 1.78 0.00 60 1017.0
20260503221003 29 0 0.0 0.0 0.00 1.78 0.00 60 1016.9
20260503220903 29 0 0.0 0.0 0.00 1.78 0.00 60 1017.0
20260503220803 29 0 0.0 0.0 0.00 1.78 0.00 60 1017.0
20260503220703 29 0 0.0 0.0 0.00 1.78 0.00 60 1017.0
20260503220604 29 0 0.0 0.0 0.00 1.78 0.00 60 1017.0
20260503220503 29 0 0.0 0.0 0.00 1.78 0.00 60 1016.9
20260503220403 29 0 0.0 0.0 0.00 1.78 0.00 60 1016.9
20260503220303 29 0 0.0 0.0 0.00 1.78 0.00 60 1016.7
20260503220203 29 0 0.0 0.0 0.00 1.78 0.00 60 1016.7
20260503220103 29 0 0.0 0.0 0.00 1.78 0.00 60 1016.9
20260503220003 29 0 0.0 0.0 0.00 1.78 0.00 60 1017.0
20260503215903 29 0 0.0 0.0 0.00 1.78 0.00 60 1016.7
20260503215824 29 0 0.0 0.0 0.00 1.78 0.00 60 1016.9
20260503215703 29 0 0.0 0.0 0.00 1.78 0.00 60 1016.7
20260503215603 29 0 0.0 0.0 0.00 1.78 0.00 60 1016.6
20260503215505 29 0 0.0 0.0 0.00 1.78 0.00 60 1016.6
20260503215403 29 0 0.0 0.0 0.00 1.78 0.00 60 1016.7
20260503215304 29 0 0.0 0.0 0.00 1.78 0.00 60 1016.9
20260503215224 29 275 0.0 3.2 0.00 1.78 0.00 60 1016.9
20260503215103 29 275 0.0 3.2 0.00 1.78 0.00 60 1016.9
20260503215003 29 275 1.6 3.2 0.00 1.78 0.00 60 1016.6
20260503214903 29 273 1.6 3.2 0.00 1.78 0.00 60 1016.7
20260503214824 29 271 1.6 3.2 0.00 1.78 0.00 60 1016.7
20260503214703 29 268 1.6 4.8 0.00 1.78 0.00 60 1017.0
20260503214603 29 267 1.6 4.8 0.00 1.78 0.00 60 1016.7
20260503214524 29 267 3.2 4.8 0.00 1.78 0.00 60 1016.9
20260503214403 29 267 3.2 4.8 0.00 1.78 0.00 60 1016.9
20260503214303 29 267 3.2 4.8 0.00 1.78 0.00 60 1016.9
20260503214203 29 267 3.2 4.8 0.00 1.78 0.00 60 1016.7
20260503214103 29 265 3.2 4.8 0.00 1.78 0.00 60 1016.7
20260503214003 29 264 1.6 4.8 0.00 1.78 0.00 60 1017.0
20260503213905 29 264 1.6 4.8 0.00 1.78 0.00 60 1016.9
20260503213803 29 264 1.6 4.8 0.00 1.78 0.00 60 1016.7
20260503213703 29 265 1.6 3.2 0.00 1.78 0.00 60 1016.9
20260503213603 29 267 1.6 3.2 0.00 1.78 0.00 60 1016.7
20260503213503 29 268 0.0 3.2 0.00 1.78 0.00 60 1016.7
20260503213403 29 267 0.0 1.6 0.00 1.78 0.00 60 1016.9
20260503213324 29 266 0.0 1.6 0.00 1.78 0.00 60 1016.9
20260503213203 29 265 0.0 1.6 0.00 1.78 0.00 60 1016.9
20260503213103 29 0 0.0 0.0 0.00 1.78 0.00 60 1016.9
20260503213003 29 0 0.0 0.0 0.00 1.78 0.00 60 1016.9
20260503212904 29 0 0.0 0.0 0.00 1.78 0.00 60 1016.6
20260503212803 29 0 0.0 0.0 0.00 1.78 0.00 60 1016.6
20260503212703 29 0 0.0 0.0 0.00 1.78 0.00 60 1016.5
20260503212603 29 0 0.0 0.0 0.00 1.78 0.00 60 1016.7
20260503212524 29 0 0.0 0.0 0.00 1.78 0.00 60 1016.6
20260503212403 29 0 0.0 0.0 0.00 1.78 0.00 60 1016.6
20260503212305 29 0 0.0 0.0 0.00 1.78 0.00 60 1016.6
20260503212225 29 0 0.0 0.0 0.00 1.78 0.00 60 1016.7
20260503212103 29 0 0.0 0.0 0.00 1.78 0.00 60 1016.7
20260503212003 29 0 0.0 0.0 0.00 1.78 0.00 60 1016.7
20260503211903 29 0 0.0 0.0 0.00 1.78 0.00 60 1016.9
20260503211803 29 240 0.0 1.6 0.00 1.78 0.00 60 1016.9
20260503211703 29 240 0.0 1.6 0.00 1.78 0.00 60 1016.9
20260503211603 29 240 0.0 1.6 0.00 1.78 0.00 60 1016.9
20260503211503 29 240 0.0 1.6 0.00 1.78 0.00 60 1016.7
20260503211403 29 237 0.0 1.6 0.00 1.78 0.00 60 1017.0
20260503211303 29 237 0.0 1.6 0.00 1.78 0.00 60 1017.1
20260503211203 29 237 0.0 1.6 0.00 1.78 0.00 60 1017.1
20260503211103 29 237 0.0 1.6 0.00 1.78 0.00 60 1016.9
20260503211003 29 232 0.0 1.6 0.00 1.78 0.00 60 1017.0
20260503210903 29 232 0.0 1.6 0.00 1.80 0.00 60 1017.0
20260503210824 29 232 0.0 1.6 0.00 1.80 0.00 60 1017.0
20260503210703 29 230 0.0 1.6 0.00 1.80 0.00 60 1016.9
20260503210604 29 224 0.0 1.6 0.00 1.80 0.00 60 1017.2
20260503210525 29 220 0.0 1.6 0.00 1.80 0.00 60 1017.0
20260503210403 29 221 0.0 1.6 0.00 1.83 0.00 60 1017.0
20260503210303 29 221 0.0 1.6 0.00 1.83 0.00 60 1017.0
20260503210203 29 221 0.0 1.6 0.00 1.85 0.00 60 1016.9
20260503210103 29 221 0.0 1.6 0.00 1.85 0.00 60 1017.1
20260503210024 29 216 0.0 1.6 0.00 1.88 0.00 60 1017.0
20260503205904 29 272 0.0 1.6 0.00 1.93 0.00 60 1017.0
20260503205824 29 272 0.0 1.6 0.00 1.96 0.00 60 1017.1
20260503205724 29 272 0.0 1.6 0.00 1.96 0.00 60 1016.9
20260503205624 29 268 0.0 3.2 0.00 1.96 0.00 60 1016.9
20260503205503 29 268 1.6 3.2 0.00 1.96 0.00 60 1017.0
20260503205403 29 270 1.6 3.2 0.00 1.96 0.00 60 1016.9
20260503205304 29 271 1.6 3.2 0.00 1.96 0.00 60 1016.9
20260503205224 29 272 1.6 3.2 0.00 1.96 0.00 60 1017.0
20260503205103 29 273 1.6 3.2 0.00 1.96 0.00 60 1017.0
20260503205003 29 273 1.6 3.2 0.00 1.96 0.00 60 1017.0
20260503204903 29 273 1.6 3.2 0.00 1.96 0.00 60 1016.9
20260503204805 29 273 1.6 3.2 0.00 1.96 0.00 60 1016.9
20260503204703 29 273 1.6 3.2 0.00 1.96 0.00 60 1017.0
20260503204624 29 274 1.6 3.2 0.00 1.96 0.00 60 1017.1
20260503204503 29 277 1.6 3.2 0.00 1.96 0.00 60 1016.9
20260503204403 29 278 0.0 3.2 0.00 1.96 0.00 60 1016.9
20260503204303 29 279 0.0 3.2 0.00 1.96 0.00 60 1016.9
20260503204203 29 279 0.0 1.6 0.00 1.96 0.00 60 1017.1
20260503204124 29 278 0.0 1.6 0.00 1.96 0.00 60 1016.9
20260503204003 29 269 0.0 3.2 0.00 1.96 0.00 60 1016.9
20260503203903 29 268 1.6 3.2 0.00 1.96 0.00 60 1017.1
20260503203803 29 266 1.6 3.2 0.00 1.96 0.00 60 1017.1
20260503203703 29 267 1.6 4.8 0.00 1.96 0.00 60 1017.1
20260503203603 29 266 1.6 4.8 0.00 1.96 0.00 60 1017.1
20260503203503 29 266 1.6 4.8 0.00 1.96 0.00 60 1017.0
20260503203424 29 266 1.6 4.8 0.00 1.96 0.00 60 1017.1
20260503203303 29 265 1.6 4.8 0.00 1.96 0.00 60 1017.1
20260503203203 29 265 1.6 4.8 0.00 1.96 0.00 60 1016.9
20260503203103 29 264 1.6 4.8 0.00 1.96 0.00 60 1017.0
20260503203004 29 265 1.6 4.8 0.00 1.96 0.00 60 1017.0
20260503202903 29 265 1.6 4.8 0.00 1.96 0.00 60 1017.1
20260503202805 29 266 1.6 4.8 0.00 1.96 0.00 60 1017.0
20260503202703 29 265 0.0 4.8 0.00 1.96 0.00 60 1017.0
20260503202603 29 264 0.0 3.2 0.00 1.96 0.00 60 1016.9
20260503202503 29 258 0.0 1.6 0.00 1.96 0.00 60 1017.0
20260503202403 29 260 0.0 3.2 0.00 1.96 0.00 60 1016.7
20260503202325 29 261 1.6 3.2 0.00 1.96 0.00 60 1016.7
20260503202203 29 261 1.6 3.2 0.00 1.96 0.00 60 1017.0
20260503202124 29 262 1.6 3.2 0.00 1.96 0.00 60 1017.0
20260503202003 29 263 1.6 3.2 0.00 1.96 0.00 60 1017.0
20260503201903 29 262 1.6 3.2 0.00 1.96 0.00 60 1016.9
20260503201803 29 262 1.6 3.2 0.00 1.96 0.00 60 1017.0
20260503201703 29 262 1.6 3.2 0.00 1.96 0.00 60 1017.0
20260503201603 29 261 1.6 3.2 0.00 1.96 0.00 60 1016.9
20260503201503 29 259 1.6 3.2 0.00 1.96 0.00 60 1016.9
20260503201403 29 254 1.6 3.2 0.00 1.96 0.00 60 1016.9
20260503201303 29 251 1.6 3.2 0.00 1.96 0.00 60 1017.1
20260503201204 29 241 1.6 3.2 0.00 1.96 0.00 60 1017.0
20260503201103 29 237 1.6 3.2 0.00 1.96 0.00 60 1016.9
20260503201003 29 234 1.6 3.2 0.00 1.96 0.00 60 1017.1
20260503200903 29 232 1.6 3.2 0.00 1.96 0.00 60 1017.1
20260503200803 29 232 1.6 3.2 0.00 1.96 0.00 60 1017.0
20260503200703 29 232 1.6 3.2 0.00 1.96 0.00 60 1017.1
20260503200624 29 231 1.6 3.2 0.00 1.96 0.00 60 1017.1
20260503200503 29 227 1.6 3.2 0.00 1.96 0.00 60 1017.0
20260503200403 29 225 0.0 3.2 0.00 1.96 0.00 60 1017.1
20260503200303 29 221 0.0 3.2 0.00 1.96 0.00 60 1017.0
20260503200203 29 237 0.0 1.6 0.00 1.96 0.00 60 1016.9
20260503200003 29 239 0.0 1.6 0.00 1.96 0.00 60 1017.1
20260503195903 29 0 0.0 0.0 0.00 1.96 0.00 60 1017.1
20260503195803 29 0 0.0 0.0 0.00 1.96 0.00 60 1017.0
20260503195703 29 0 0.0 0.0 0.00 1.96 0.00 60 1017.2
20260503195624 29 0 0.0 0.0 0.00 1.96 0.00 60 1017.1
20260503195524 29 0 0.0 0.0 0.00 1.96 0.00 60 1017.2
20260503195404 29 47 0.0 1.6 0.00 1.96 0.00 60 1017.1
20260503195304 29 47 0.0 1.6 0.00 1.96 0.00 60 1017.1
20260503195203 29 47 0.0 1.6 0.00 1.96 0.00 60 1016.9
20260503195103 29 47 0.0 1.6 0.00 1.96 0.00 60 1017.2
20260503195003 29 47 0.0 1.6 0.00 1.96 0.00 60 1017.0
20260503194924 29 47 0.0 1.6 0.00 1.96 0.00 60 1017.0
20260503194803 29 47 0.0 1.6 0.00 1.96 0.00 60 1017.1
20260503194703 29 47 0.0 1.6 0.00 1.96 0.00 60 1017.1
20260503194603 29 47 0.0 1.6 0.00 1.96 0.00 60 1017.2
20260503194525 29 47 0.0 1.6 0.00 1.96 0.00 60 1017.1
20260503194403 29 0 0.0 0.0 0.00 1.96 0.00 60 1017.0
20260503194303 29 0 0.0 0.0 0.00 1.96 0.00 60 1017.1
20260503194203 29 0 0.0 0.0 0.00 1.96 0.00 60 1017.2
20260503194103 29 0 0.0 0.0 0.00 1.96 0.00 60 1017.1
20260503194003 29 0 0.0 0.0 0.00 1.96 0.00 60 1017.1
20260503193903 29 0 0.0 0.0 0.00 1.96 0.00 60 1017.2
20260503193803 29 0 0.0 0.0 0.00 1.96 0.00 60 1017.2
20260503193703 29 0 0.0 0.0 0.00 1.96 0.00 60 1017.1
20260503193603 29 0 0.0 0.0 0.00 1.96 0.00 60 1017.1
20260503193503 29 0 0.0 0.0 0.00 1.96 0.00 60 1017.1
20260503193403 29 83 0.0 1.6 0.00 1.96 0.00 60 1017.2
20260503193305 29 83 0.0 1.6 0.00 1.96 0.00 60 1017.1
20260503193203 29 83 0.0 1.6 0.00 1.96 0.00 60 1017.1
20260503193124 29 83 0.0 1.6 0.00 1.96 0.00 60 1017.2
20260503193003 29 83 0.0 1.6 0.00 1.96 0.00 60 1017.1
20260503192903 29 83 0.0 1.6 0.00 1.96 0.00 60 1017.2
20260503192803 29 83 0.0 1.6 0.00 1.96 0.00 60 1017.2
20260503192703 29 83 0.0 1.6 0.00 1.96 0.00 60 1017.1
20260503192603 29 83 0.0 1.6 0.00 1.96 0.00 60 1017.3
20260503192503 29 83 0.0 1.6 0.00 1.96 0.00 60 1017.1
20260503192403 29 79 0.0 1.6 0.00 1.96 0.00 60 1017.1
20260503192305 29 0 0.0 0.0 0.00 1.96 0.00 60 1017.0
20260503192203 29 70 0.0 1.6 0.00 1.96 0.00 60 1017.1
20260503192103 29 83 0.0 1.6 0.00 1.96 0.00 60 1017.2
20260503192003 29 85 0.0 1.6 0.00 1.96 0.00 60 1017.2
20260503191924 29 92 0.0 1.6 0.00 1.96 0.00 60 1017.1
20260503191804 29 101 0.0 1.6 0.00 1.96 0.00 60 1017.2
20260503191703 29 101 0.0 1.6 0.00 1.96 0.00 60 1017.1
20260503191624 29 106 1.6 1.6 0.00 1.96 0.00 60 1017.1
20260503191504 29 117 1.6 1.6 0.00 1.96 0.00 60 1017.3
20260503191403 29 132 1.6 1.6 0.00 1.96 0.00 60 1017.2
20260503191303 29 136 1.6 1.6 0.00 1.96 0.00 60 1017.3
20260503191203 29 141 1.6 1.6 0.00 1.96 0.00 60 1017.3
20260503191103 29 156 1.6 1.6 0.00 1.96 0.00 60 1017.3
20260503191003 29 174 0.0 1.6 0.00 1.96 0.00 60 1017.2
20260503190903 29 194 0.0 1.6 0.00 1.96 0.00 60 1017.2
20260503190803 29 209 0.0 1.6 0.00 1.96 0.00 60 1017.3
20260503190703 29 209 0.0 1.6 0.00 1.96 0.00 60 1017.3
20260503190604 29 210 0.0 1.6 0.00 1.96 0.00 60 1017.3
20260503190503 29 214 0.0 1.6 0.00 1.96 0.00 60 1017.4
20260503190403 29 249 0.0 1.6 0.00 1.96 0.00 60 1017.2
20260503190324 29 248 0.0 1.6 0.00 1.96 0.00 60 1017.3
20260503190203 29 248 0.0 1.6 0.00 1.96 0.00 60 1017.4
20260503190103 29 248 0.0 1.6 0.00 1.96 0.00 60 1017.3
20260503190003 29 248 0.0 1.6 0.00 1.96 0.00 60 1017.4
20260503185905 29 248 0.0 1.6 0.00 1.96 0.00 60 1017.4
20260503185803 29 261 0.0 3.2 0.00 1.96 0.00 60 1017.4
20260503185703 29 262 0.0 3.2 0.00 1.96 0.00 60 1017.3
20260503185603 29 263 0.0 3.2 0.00 1.96 0.00 60 1017.2
20260503185503 29 265 1.6 3.2 0.00 1.96 0.00 60 1017.2
20260503185403 29 266 1.6 3.2 0.00 1.96 0.00 60 1017.3
20260503185304 29 266 1.6 3.2 0.00 1.96 0.00 60 1017.3
20260503185203 29 270 1.6 3.2 0.00 1.96 0.00 60 1017.3
20260503185103 29 270 1.6 3.2 0.00 1.96 0.00 60 1017.3
20260503185024 29 270 1.6 3.2 0.00 1.96 0.00 60 1017.3
20260503184903 29 271 1.6 3.2 0.00 1.96 0.00 60 1017.3
20260503184803 29 267 1.6 3.2 0.00 1.96 0.00 60 1017.4
20260503184703 29 266 1.6 3.2 0.00 1.96 0.00 60 1017.3
20260503184603 29 265 1.6 3.2 0.00 1.96 0.00 60 1017.4
20260503184503 29 262 1.6 3.2 0.00 1.96 0.00 60 1017.5
20260503184424 29 260 1.6 3.2 0.00 1.96 0.00 60 1017.4
20260503184305 29 259 1.6 3.2 0.00 1.96 0.00 60 1017.2
20260503184203 29 257 1.6 3.2 0.00 1.96 0.00 60 1017.3
20260503184125 29 255 1.6 3.2 0.00 1.96 0.00 60 1017.3
20260503184003 29 252 1.6 3.2 0.00 1.96 0.00 60 1017.3
20260503183903 29 247 1.6 3.2 0.00 1.96 0.00 60 1017.3
20260503183804 29 248 1.6 3.2 0.00 1.96 0.00 60 1017.3
20260503183703 29 247 0.0 3.2 0.00 1.96 0.00 60 1017.4
20260503183603 29 242 0.0 3.2 0.00 1.96 0.00 60 1017.4
20260503183503 29 243 0.0 3.2 0.00 1.96 0.00 60 1017.5
20260503183424 29 242 0.0 3.2 0.00 1.96 0.00 60 1017.4
20260503183304 29 0 0.0 0.0 0.00 1.96 0.00 60 1017.6
20260503183203 29 0 0.0 0.0 0.00 1.96 0.00 60 1017.6
20260503183104 29 0 0.0 0.0 0.00 1.96 0.00 60 1017.4
20260503183024 29 0 0.0 0.0 0.00 1.96 0.00 60 1017.3
20260503182904 29 0 0.0 0.0 0.00 1.96 1.96 60 1017.4
20260503182804 29 0 0.0 0.0 0.00 1.96 1.96 60 1017.4
20260503182704 29 0 0.0 0.0 0.00 1.96 1.96 60 1017.5
20260503182605 29 0 0.0 0.0 0.00 1.96 1.96 60 1017.2
20260503182505 29 0 0.0 0.0 0.00 1.96 1.96 60 1017.5
20260503182404 29 0 0.0 0.0 0.00 1.96 1.96 60 1017.5
20260503182305 29 0 0.0 0.0 0.00 1.96 1.96 60 1017.3
20260503182204 29 0 0.0 0.0 0.00 1.96 1.96 60 1017.4
20260503182124 29 0 0.0 0.0 0.00 1.96 1.96 60 1017.4
20260503182004 29 0 0.0 0.0 0.00 1.96 1.96 60 1017.4
20260503181903 29 0 0.0 0.0 0.00 1.96 1.96 60 1017.5
20260503181803 29 0 0.0 0.0 0.00 1.96 1.96 60 1017.3
20260503181703 29 0 0.0 0.0 0.00 1.96 1.96 60 1017.4
20260503181604 29 0 0.0 0.0 0.00 1.96 1.96 60 1017.4
20260503181524 29 0 0.0 0.0 0.00 1.96 1.96 60 1017.6
20260503181404 29 0 0.0 0.0 0.00 1.96 1.96 60 1017.4
20260503181304 29 0 0.0 0.0 0.00 1.96 1.96 60 1017.5
20260503181204 29 0 0.0 0.0 0.00 1.96 1.96 60 1017.5
20260503181103 29 0 0.0 0.0 0.00 1.96 1.96 60 1017.3
20260503181004 29 0 0.0 0.0 0.00 1.96 1.96 60 1017.4
20260503180904 29 0 0.0 0.0 0.00 1.96 1.96 60 1017.3
20260503180804 29 0 0.0 0.0 0.00 1.96 1.96 60 1017.3
20260503180703 29 0 0.0 0.0 0.00 1.96 1.96 60 1017.2
20260503180604 29 0 0.0 0.0 0.00 1.96 1.96 60 1017.4
20260503180504 29 0 0.0 0.0 0.00 1.96 1.96 60 1017.1
20260503180404 29 0 0.0 0.0 0.00 1.96 1.96 60 1017.1
20260503180303 29 0 0.0 0.0 0.00 1.96 1.96 60 1017.3
20260503180204 29 0 0.0 0.0 0.00 1.96 1.96 60 1017.3
20260503180104 29 0 0.0 0.0 0.00 1.96 1.96 60 1017.3
20260503180004 29 0 0.0 0.0 0.00 1.96 1.96 60 1017.3
20260503175903 29 0 0.0 0.0 0.00 1.96 1.96 60 1017.2
20260503175803 29 0 0.0 0.0 0.00 1.96 1.96 60 1017.3
20260503175703 29 0 0.0 0.0 0.00 1.96 1.96 60 1017.4
20260503175603 29 0 0.0 0.0 0.00 1.96 1.96 60 1017.3
20260503175504 29 0 0.0 0.0 0.00 1.96 1.96 60 1017.3
20260503175403 29 0 0.0 0.0 0.00 1.96 1.96 60 1017.3
20260503175304 29 0 0.0 0.0 0.00 1.96 1.96 60 1017.4
20260503175205 29 0 0.0 0.0 0.00 1.96 1.96 60 1017.3
20260503175103 29 0 0.0 0.0 0.00 1.96 1.96 60 1017.5
20260503175004 29 0 0.0 0.0 0.00 1.96 1.96 60 1017.4
20260503174903 29 0 0.0 0.0 0.00 1.96 1.96 60 1017.3
20260503174803 29 0 0.0 0.0 0.00 1.96 1.96 60 1017.4
20260503174703 29 0 0.0 0.0 0.00 1.96 1.96 60 1017.3
20260503174603 29 0 0.0 0.0 0.00 1.96 1.96 60 1017.4
20260503174503 29 0 0.0 0.0 0.00 1.96 1.96 60 1017.4
20260503174403 29 0 0.0 0.0 0.00 1.96 1.96 60 1017.4
20260503174303 29 0 0.0 0.0 0.00 1.96 1.96 60 1017.5
20260503174204 29 0 0.0 0.0 0.00 1.96 1.96 60 1017.3
20260503174103 29 0 0.0 0.0 0.00 1.96 1.96 60 1017.4
20260503174003 29 0 0.0 0.0 0.00 1.96 1.96 60 1017.4
20260503173924 29 0 0.0 0.0 0.00 1.96 1.96 60 1017.4
20260503173803 29 0 0.0 0.0 0.00 1.96 1.96 60 1017.5
20260503173724 29 0 0.0 0.0 0.00 1.96 1.96 60 1017.4
20260503173603 29 0 0.0 0.0 0.00 1.96 1.96 60 1017.4
20260503173504 29 0 0.0 0.0 0.00 1.96 1.96 60 1017.4
20260503173404 29 0 0.0 0.0 0.00 1.96 1.96 60 1017.4
20260503173303 29 0 0.0 0.0 0.00 1.96 1.96 60 1017.4
20260503173203 29 0 0.0 0.0 0.00 1.96 1.96 60 1017.4
20260503173103 29 0 0.0 0.0 0.00 1.96 1.96 60 1017.5
20260503173003 29 0 0.0 0.0 0.00 1.96 1.96 60 1017.7
20260503172905 29 0 0.0 0.0 0.00 1.96 1.96 60 1017.6
20260503172803 29 0 0.0 0.0 0.00 1.96 1.96 60 1017.6
20260503172726 29 0 0.0 0.0 0.00 1.96 1.96 60 1017.5
20260503172604 29 0 0.0 0.0 0.00 1.96 1.96 60 1017.7
20260503172504 29 0 0.0 0.0 0.00 1.96 1.96 60 1017.6
20260503172403 29 0 0.0 0.0 0.00 1.96 1.96 60 1017.6
20260503172305 29 0 0.0 0.0 0.00 1.96 1.96 60 1017.5
20260503172203 29 0 0.0 0.0 0.00 1.96 1.96 60 1017.5
20260503172124 29 0 0.0 0.0 0.00 1.96 1.96 60 1017.6
20260503172003 29 0 0.0 0.0 0.00 1.96 1.96 60 1017.5
20260503171924 29 0 0.0 0.0 0.00 1.96 1.96 60 1017.6
20260503171825 29 0 0.0 0.0 0.00 1.96 1.96 60 1017.6
20260503171724 29 0 0.0 0.0 0.00 1.96 1.96 60 1017.6
20260503171603 29 0 0.0 0.0 0.00 1.96 1.96 60 1017.7
20260503171503 29 0 0.0 0.0 0.00 1.96 1.96 60 1017.7
20260503171403 29 0 0.0 0.0 0.00 1.96 1.96 60 1017.7
20260503171303 29 0 0.0 0.0 0.00 1.96 1.96 60 1017.9
20260503171224 29 0 0.0 0.0 0.00 1.96 1.96 60 1017.9
20260503171103 29 0 0.0 0.0 0.00 1.96 1.96 60 1018.0
20260503171005 29 0 0.0 0.0 0.00 1.96 1.96 60 1017.9
20260503170903 29 0 0.0 0.0 0.00 1.96 1.96 60 1017.9
20260503170803 29 0 0.0 0.0 0.00 1.96 1.96 60 1017.9
20260503170703 29 0 0.0 0.0 0.00 1.96 1.96 60 1017.9
20260503170603 29 0 0.0 0.0 0.00 1.96 1.96 60 1017.8
20260503170503 29 0 0.0 0.0 0.00 1.96 1.96 60 1017.9
20260503170403 29 0 0.0 0.0 0.00 1.96 1.96 60 1017.9
20260503170303 29 0 0.0 0.0 0.00 1.96 1.96 60 1017.9
20260503170204 29 0 0.0 0.0 0.00 1.96 1.96 60 1017.9
20260503170104 29 0 0.0 0.0 0.00 1.96 1.96 60 1018.0
20260503160203 29 112 4.8 6.4 0.00 1.98 1.96 60 1017.9
20260503160104 29 109 4.8 6.4 0.00 1.98 1.96 60 1017.8
20260503150903 29 0 0.0 0.0 0.00 1.98 1.96 60 1017.6
20260503150804 29 0 0.0 0.0 0.00 1.98 1.96 60 1017.6
20260503150704 29 0 0.0 0.0 0.00 1.98 1.96 60 1017.7
20260503150603 29 0 0.0 0.0 0.00 1.98 1.96 60 1017.6
20260503150505 29 0 0.0 0.0 0.00 1.98 1.96 60 1017.7
20260503150426 29 0 0.0 0.0 0.00 1.98 1.96 60 1017.7
20260503150303 29 0 0.0 0.0 0.00 1.98 1.96 60 1017.7
20260503150203 29 0 0.0 0.0 0.00 1.98 1.96 60 1017.7
20260503150103 29 0 0.0 0.0 0.00 2.01 1.96 60 1017.6
20260503140303 29 260 3.2 6.4 0.00 2.01 1.96 60 1016.6
20260503140224 29 256 3.2 6.4 0.00 2.01 1.96 60 1016.6
20260503140124 29 254 3.2 6.4 0.00 2.01 1.96 60 1016.5
20260503131303 29 257 6.4 9.7 0.03 2.01 1.96 60 1015.8
20260503131203 29 258 6.4 9.7 0.03 2.01 1.96 60 1015.4
20260503131103 29 255 6.4 9.7 0.03 2.01 1.96 60 1015.3
20260503131003 29 255 4.8 9.7 0.03 2.01 1.96 60 1015.4
20260503130903 29 255 4.8 9.7 0.05 2.01 1.96 60 1015.4
20260503130803 29 256 4.8 9.7 0.05 2.01 1.96 60 1015.2
20260503130703 29 256 4.8 9.7 0.08 2.01 1.96 60 1015.2
20260503130603 29 259 4.8 9.7 0.08 2.01 1.96 60 1015.4
20260503130503 29 262 4.8 9.7 0.08 2.01 1.96 60 1015.3
20260503130403 29 263 4.8 9.7 0.08 2.01 1.96 60 1015.3
20260503130303 29 265 4.8 9.7 0.10 2.01 1.96 60 1015.3
20260503130203 29 266 4.8 9.7 0.10 2.01 1.96 60 1015.3
20260503130103 29 271 4.8 9.7 0.10 2.01 1.96 60 1015.1
20260503120204 29 213 4.8 9.7 0.05 1.91 1.85 60 1014.8
20260503120103 29 212 3.2 4.8 0.05 1.91 1.85 60 1014.8
20260503110805 29 4 6.4 9.7 0.00 1.85 1.80 60 1013.5
20260503110703 29 4 6.4 9.7 0.00 1.85 1.80 60 1013.5
20260503110625 29 5 6.4 9.7 0.00 1.85 1.80 60 1013.4
20260503110503 29 3 6.4 9.7 0.00 1.85 1.80 60 1013.5
20260503110403 29 360 6.4 9.7 0.00 1.85 1.80 60 1013.5
20260503110324 29 359 6.4 9.7 0.00 1.85 1.80 60 1013.4
20260503110203 29 355 6.4 9.7 0.00 1.85 1.80 60 1013.5
20260503110103 29 352 6.4 9.7 0.00 1.85 1.80 60 1013.5
20260503100203 29 11 6.4 11.3 0.00 1.85 1.80 60 1013.0
20260503100103 29 12 6.4 11.3 0.00 1.85 1.80 60 1013.1
20260503090403 29 349 11.3 16.1 0.00 2.18 1.80 60 1013.1
20260503090303 29 350 11.3 16.1 0.00 2.18 1.80 60 1013.1
20260503090203 29 352 11.3 16.1 0.00 2.18 1.80 60 1013.1
20260503090105 29 351 11.3 16.1 0.00 2.18 1.80 60 1013.1
20260503081604 29 351 12.9 20.9 0.00 2.18 1.80 60 1013.7
20260503081524 29 353 12.9 20.9 0.00 2.18 1.80 60 1013.8
20260503081403 29 353 12.9 20.9 0.00 2.18 1.80 60 1013.8
20260503081303 29 357 12.9 20.9 0.00 2.18 1.80 60 1013.8
20260503081204 29 357 12.9 20.9 0.00 2.18 1.80 60 1013.7
20260503081103 29 358 12.9 20.9 0.00 2.18 1.80 60 1013.7
20260503081024 29 358 12.9 22.5 0.00 2.18 1.80 60 1013.9
20260503080903 29 358 14.5 22.5 0.00 2.18 1.80 60 1013.8
20260503080803 29 354 14.5 22.5 0.00 2.18 1.80 60 1013.7
20260503080703 29 352 14.5 22.5 0.00 2.18 1.80 60 1013.8
20260503080624 29 353 14.5 22.5 0.00 2.18 1.80 60 1013.8
20260503080524 29 353 14.5 22.5 0.00 2.18 1.80 60 1014.0
20260503080403 29 351 14.5 22.5 0.00 2.18 1.80 60 1013.9
20260503080303 29 348 14.5 22.5 0.00 2.18 1.80 60 1013.9
20260503080203 29 348 14.5 22.5 0.00 2.18 1.80 60 1013.9
20260503080103 29 348 14.5 22.5 0.00 2.18 1.80 60 1013.9
20260503072903 29 336 14.5 17.7 0.00 2.18 1.80 60 1014.4
20260503072803 29 336 14.5 20.9 0.00 2.21 1.80 60 1014.4
20260503072703 29 336 14.5 20.9 0.00 2.26 1.80 60 1014.2
20260503072603 29 331 14.5 20.9 0.00 2.36 1.80 60 1014.2
20260503072525 29 334 14.5 20.9 0.00 2.49 1.80 60 1014.1
20260503072403 29 337 14.5 22.5 0.00 2.62 1.80 60 1014.2
20260503072324 29 338 14.5 22.5 0.00 2.67 1.80 60 1014.5
20260503072203 29 348 14.5 22.5 0.00 2.82 1.80 60 1014.5
20260503072103 29 352 14.5 22.5 0.00 2.92 1.80 60 1014.6
20260503072024 29 351 14.5 22.5 0.00 2.97 1.80 60 1014.6
20260503071903 29 351 14.5 22.5 0.00 2.97 1.80 60 1014.4
20260503071803 29 352 14.5 22.5 0.00 3.00 1.80 60 1014.6
20260503071705 29 355 14.5 22.5 0.00 3.00 1.80 60 1014.7
20260503071603 29 357 14.5 22.5 0.00 3.00 1.80 60 1014.7
20260503071503 29 358 12.9 22.5 0.00 3.00 1.80 60 1014.6
20260503071403 29 355 12.9 17.7 0.00 3.00 1.80 60 1014.6
20260503071324 29 355 12.9 17.7 0.00 3.00 1.80 60 1014.7
20260503071203 29 345 12.9 17.7 0.00 3.00 1.80 60 1014.8
20260503071103 29 344 12.9 17.7 0.00 3.00 1.80 60 1014.7
20260503071003 29 346 11.3 17.7 0.00 3.00 1.80 60 1014.8
20260503070903 29 345 11.3 17.7 0.00 3.00 1.80 60 1014.8
20260503070803 29 341 11.3 17.7 0.00 3.00 1.80 60 1014.7
20260503070703 29 339 11.3 17.7 0.00 3.00 1.80 60 1014.9
20260503070624 29 339 12.9 17.7 0.00 3.00 1.80 60 1014.9
20260503070503 29 344 12.9 17.7 0.00 3.00 1.80 60 1014.9